When you browse on this site, cookies collect data to enhance your experience and personalize the content and advertising you see.
Visit our Privacy Policy to learn more. By continuing to use the site, you agree to this use of cookies and data.

Previsão horária em Abdrezyakovo

Hoje, 28 Setembro, Segunda-feira

Tempo Temperatura Precipitação Vento Pressão Humidade
00:00 +8°C° 0 mm 1 m/s 741 mmHg 92%
01:00 +8°C° 0 mm 1 m/s 741 mmHg 93%
02:00 +7°C° 0 mm 1 m/s 741 mmHg 94%
03:00 +7°C° 0 mm 1 m/s 741 mmHg 94%
04:00 +7°C° 0 mm 1 m/s 741 mmHg 94%
05:00 +7°C° 0 mm 1 m/s 741 mmHg 94%
06:00 +7°C° 0 mm 1 m/s 741 mmHg 94%
07:00 +7°C° 0 mm 1 m/s 741 mmHg 94%
08:00 +9°C° 0 mm 1 m/s 741 mmHg 88%
09:00 +10°C° 0 mm 2 m/s 741 mmHg 81%
10:00 +12°C° 0 mm 2 m/s 741 mmHg 74%
11:00 +13°C° 0 mm 2 m/s 741 mmHg 71%
12:00 +14°C° 0 mm 2 m/s 741 mmHg 69%
13:00 +14°C° 0 mm 3 m/s 741 mmHg 66%
14:00 +14°C° 0 mm 3 m/s 741 mmHg 67%
15:00 +15°C° 0 mm 2 m/s 741 mmHg 69%
16:00 +15°C° 0 mm 2 m/s 741 mmHg 72%
17:00 +13°C° 0 mm 1 m/s 741 mmHg 77%
18:00 +12°C° 0 mm 1 m/s 741 mmHg 83%
19:00 +9°C° 0 mm 0 m/s 741 mmHg 89%
20:00 +9°C° 0 mm 0 m/s 741 mmHg 90%
21:00 +8°C° 0 mm 0 m/s 741 mmHg 91%
22:00 +8°C° 0 mm 0 m/s 742 mmHg 92%
23:00 +8°C° 0 mm 0 m/s 742 mmHg 92%

Amanhã, 29 Setembro, Terça-feira

Tempo Temperatura Precipitação Vento Pressão Humidade
00:00 +7°C° 0 mm 0 m/s 742 mmHg 93%
01:00 +7°C° 0 mm 0 m/s 742 mmHg 93%
02:00 +7°C° 0 mm 0 m/s 742 mmHg 94%
03:00 +7°C° 0 mm 0 m/s 742 mmHg 94%
04:00 +7°C° 0 mm 0 m/s 742 mmHg 94%
05:00 +7°C° 0 mm 0 m/s 742 mmHg 94%
06:00 +7°C° 0 mm 0 m/s 742 mmHg 94%
07:00 +7°C° 0 mm 0 m/s 742 mmHg 95%
08:00 +9°C° 0 mm 0 m/s 743 mmHg 88%
09:00 +11°C° 0 mm 0 m/s 743 mmHg 81%
10:00 +13°C° 0 mm 0 m/s 743 mmHg 74%
11:00 +14°C° 0 mm 0 m/s 743 mmHg 70%
12:00 +15°C° 0 mm 0 m/s 743 mmHg 66%
13:00 +16°C° 0 mm 0 m/s 743 mmHg 62%
14:00 +16°C° 0 mm 0 m/s 743 mmHg 64%
15:00 +16°C° 0 mm 0 m/s 743 mmHg 66%
16:00 +16°C° 0 mm 1 m/s 743 mmHg 68%
17:00 +14°C° 0 mm 0 m/s 742 mmHg 75%
18:00 +12°C° 0 mm 0 m/s 742 mmHg 82%
19:00 +10°C° 0 mm 0 m/s 742 mmHg 88%
20:00 +10°C° 0 mm 0 m/s 742 mmHg 89%
21:00 +9°C° 0 mm 0 m/s 742 mmHg 90%
22:00 +9°C° 0 mm 0 m/s 742 mmHg 91%
23:00 +8°C° 0 mm 0 m/s 742 mmHg 92%

Depois de amanhã, 30 Setembro, Quarta-feira

Tempo Temperatura Precipitação Vento Pressão Humidade
00:00 +8°C° 0 mm 0 m/s 742 mmHg 92%
01:00 +8°C° 0 mm 0 m/s 741 mmHg 93%
02:00 +7°C° 0 mm 0 m/s 742 mmHg 93%
03:00 +7°C° 0 mm 0 m/s 742 mmHg 93%
04:00 +7°C° 0 mm 0 m/s 742 mmHg 93%
05:00 +7°C° 0 mm 0 m/s 742 mmHg 93%
06:00 +7°C° 0 mm 0 m/s 742 mmHg 94%
07:00 +7°C° 0 mm 0 m/s 741 mmHg 94%
08:00 +9°C° 0 mm 0 m/s 742 mmHg 86%
09:00 +11°C° 0 mm 0 m/s 742 mmHg 79%
10:00 +13°C° 0 mm 0 m/s 742 mmHg 71%
11:00 +14°C° 0 mm 0 m/s 742 mmHg 67%
12:00 +15°C° 0 mm 0 m/s 741 mmHg 62%
13:00 +18°C° 0 mm 1 m/s 741 mmHg 58%
14:00 +16°C° 0 mm 1 m/s 741 mmHg 61%
15:00 +16°C° 0 mm 1 m/s 741 mmHg 64%
16:00 +16°C° 0 mm 1 m/s 741 mmHg 66%
17:00 +14°C° 0 mm 1 m/s 741 mmHg 73%
18:00 +12°C° 0 mm 1 m/s 741 mmHg 80%
19:00 +11°C° 0 mm 1 m/s 741 mmHg 87%
20:00 +9°C° 0 mm 0 m/s 741 mmHg 88%
21:00 +9°C° 0 mm 0 m/s 741 mmHg 88%
22:00 +8°C° 0 mm 0 m/s 741 mmHg 89%
23:00 +8°C° 0 mm 0 m/s 741 mmHg 90%

1 Outubro, Quinta-feira

Tempo Temperatura Precipitação Vento Pressão Humidade
00:00 +8°C° 0 mm 0 m/s 741 mmHg 90%
01:00 +7°C° 0 mm 0 m/s 741 mmHg 90%
02:00 +7°C° 0 mm 0 m/s 741 mmHg 91%
03:00 +7°C° 0 mm 0 m/s 741 mmHg 91%
04:00 +7°C° 0 mm 0 m/s 741 mmHg 91%
05:00 +7°C° 0 mm 0 m/s 741 mmHg 91%
06:00 +7°C° 0 mm 0 m/s 741 mmHg 92%
07:00 +7°C° 0 mm 0 m/s 741 mmHg 92%
08:00 +9°C° 0 mm 0 m/s 741 mmHg 85%
09:00 +11°C° 0 mm 0 m/s 741 mmHg 77%
10:00 +13°C° 0 mm 0 m/s 741 mmHg 70%
11:00 +14°C° 0 mm 0 m/s 741 mmHg 65%
12:00 +15°C° 0 mm 0 m/s 741 mmHg 59%
13:00 +16°C° 0 mm 0 m/s 741 mmHg 54%
14:00 +18°C° 0 mm 1 m/s 741 mmHg 56%
15:00 +18°C° 0 mm 1 m/s 741 mmHg 59%
16:00 +16°C° 0 mm 1 m/s 741 mmHg 61%
17:00 +15°C° 0 mm 1 m/s 740 mmHg 67%
18:00 +13°C° 0 mm 1 m/s 740 mmHg 73%
19:00 +10°C° 0 mm 0 m/s 740 mmHg 80%
20:00 +9°C° 0 mm 0 m/s 740 mmHg 81%
21:00 +9°C° 0 mm 0 m/s 740 mmHg 83%
22:00 +8°C° 0 mm 0 m/s 740 mmHg 84%
23:00 +8°C° 0 mm 0 m/s 740 mmHg 85%

2 Outubro, Sexta-feira

Tempo Temperatura Precipitação Vento Pressão Humidade
00:00 +8°C° 0 mm 0 m/s 740 mmHg 86%
01:00 +7°C° 0 mm 0 m/s 740 mmHg 87%
02:00 +7°C° 0 mm 0 m/s 740 mmHg 87%
03:00 +7°C° 0 mm 0 m/s 740 mmHg 88%
04:00 +7°C° 0 mm 0 m/s 740 mmHg 88%
05:00 +7°C° 0 mm 0 m/s 740 mmHg 88%
06:00 +7°C° 0 mm 0 m/s 740 mmHg 88%
07:00 +7°C° 0 mm 0 m/s 740 mmHg 88%
08:00 +10°C° 0 mm 1 m/s 740 mmHg 81%
09:00 +12°C° 0 mm 1 m/s 740 mmHg 74%
10:00 +14°C° 0 mm 1 m/s 740 mmHg 67%
11:00 +14°C° 0 mm 1 m/s 739 mmHg 64%
12:00 +15°C° 0 mm 1 m/s 739 mmHg 60%
13:00 +16°C° 0 mm 1 m/s 739 mmHg 57%
14:00 +16°C° 0 mm 1 m/s 739 mmHg 60%
15:00 +16°C° 0 mm 1 m/s 739 mmHg 62%
16:00 +15°C° 0 mm 1 m/s 739 mmHg 65%
17:00 +14°C° 0 mm 1 m/s 738 mmHg 71%
18:00 +12°C° 0 mm 1 m/s 738 mmHg 76%
19:00 +10°C° 0 mm 1 m/s 738 mmHg 82%
20:00 +10°C° 0 mm 1 m/s 738 mmHg 85%
21:00 +10°C° 0 mm 1 m/s 738 mmHg 87%
22:00 +9°C° 0 mm 1 m/s 738 mmHg 90%
23:00 +9°C° 0 mm 1 m/s 738 mmHg 91%

3 Outubro, Sábado

Tempo Temperatura Precipitação Vento Pressão Humidade
00:00 +8°C° 0 mm 1 m/s 738 mmHg 93%
01:00 +8°C° 0 mm 1 m/s 738 mmHg 94%
02:00 +8°C° 0 mm 1 m/s 738 mmHg 95%
03:00 +8°C° 0 mm 1 m/s 738 mmHg 95%
04:00 +7°C° 0 mm 1 m/s 737 mmHg 96%
05:00 +7°C° 0 mm 1 m/s 737 mmHg 96%
06:00 +7°C° 0 mm 1 m/s 737 mmHg 96%
07:00 +7°C° 0 mm 1 m/s 737 mmHg 96%
08:00 +8°C° 0 mm 2 m/s 737 mmHg 90%
09:00 +9°C° 0 mm 2 m/s 737 mmHg 84%
10:00 +12°C° 0 mm 2 m/s 737 mmHg 79%
11:00 +12°C° 0 mm 2 m/s 737 mmHg 76%
12:00 +12°C° 0 mm 3 m/s 737 mmHg 73%
13:00 +13°C° 0 mm 3 m/s 737 mmHg 71%
14:00 +12°C° 0 mm 3 m/s 737 mmHg 73%
15:00 +12°C° 0 mm 3 m/s 737 mmHg 75%
16:00 +13°C° 0 mm 2 m/s 737 mmHg 77%
17:00 +12°C° 0 mm 2 m/s 737 mmHg 79%
18:00 +10°C° 0 mm 2 m/s 737 mmHg 82%
19:00 +11°C° 0 mm 1 m/s 737 mmHg 84%
20:00 +11°C° 0.1 mm 1 m/s 737 mmHg 84%
21:00 +10°C° 0.1 mm 1 m/s 737 mmHg 84%
22:00 +10°C° 0.1 mm 1 m/s 737 mmHg 83%
23:00 +10°C° 0.1 mm 1 m/s 738 mmHg 83%
Mostrar mais